Theta_e
354 352 353 352 354 358 350 341 318 325 324 316 317 323 319 332 332 326 328 334 330 336 339 340 337 336 336 331 333 334 336 330 335 316 315 337 349 351 354 352 354 355 355 357 359 360 359 361 363 364 364 367 367 366 365 366 367 366 366 366 366 366 367 366 366 366 366 366 365 365 364 364 364 364 363 362 362 362 363 364 363 363 362 362 363 363 363 363 363 362 363 363 363 362 362 361 361
353 352 351 351 352 350 334 343 323 320 320 316 319 323 322 330 330 326 327 333 334 332 343 338 338 338 338 338 336 337 334 337 339 337 341 347 351 352 353 353 354 354 356 358 359 358 358 359 362 363 364 368 367 367 365 367 367 366 366 366 367 367 366 366 367 366 366 365 365 365 364 364 364 364 364 363 363 364 364 362 363 363 363 363 362 362 363 363 363 362 363 363 363 362 362 362 361
351 350 349 354 357 346 341 338 317 318 313 310 319 322 329 326 325 330 332 333 334 336 340 338 338 336 335 337 331 332 326 340 340 341 340 348 344 346 353 354 354 354 357 358 357 357 358 359 364 363 366 367 368 367 366 368 366 366 367 367 367 366 366 366 366 366 366 365 365 364 364 364 364 364 364 364 363 364 364 362 363 362 362 362 362 363 363 362 363 362 363 363 362 362 362 362 361
352 366 354 357 336 343 330 328 321 318 313 316 317 324 325 327 327 332 336 336 336 338 337 333 332 338 334 329 331 336 333 334 340 340 339 343 344 350 352 353 354 354 356 358 357 357 358 361 364 366 368 367 367 366 366 368 367 367 367 367 366 366 366 366 366 365 364 364 364 364 364 364 364 364 364 363 363 364 364 362 363 362 362 363 363 362 362 363 363 362 362 362 362 362 362 362 361
359 359 359 350 339 327 328 325 323 322 314 319 316 328 328 329 332 331 335 337 335 336 336 334 332 337 337 334 337 330 331 339 341 344 343 346 352 353 352 352 352 352 355 358 357 356 358 362 364 368 367 366 367 366 367 368 368 367 367 366 366 366 366 365 364 364 365 365 365 364 363 363 364 364 363 363 364 363 363 363 362 363 363 362 362 363 362 363 363 364 363 362 362 362 362 361 361
357 355 356 353 333 343 333 321 319 319 322 328 321 324 331 332 332 332 335 336 337 338 336 335 332 333 331 334 339 333 340 332 342 344 345 345 352 353 353 353 351 353 356 358 358 357 359 364 366 368 367 366 367 368 368 368 367 367 367 366 366 365 364 364 365 365 364 364 364 363 364 364 364 364 363 364 364 363 364 363 364 363 363 363 363 363 363 363 362 363 362 362 362 362 363 362 361
349 348 346 344 341 340 323 320 319 320 324 328 324 326 329 332 334 332 331 332 336 337 338 333 335 333 328 335 339 343 347 346 343 344 348 350 353 355 355 353 352 354 355 358 361 360 361 365 366 367 367 366 367 368 368 368 367 367 366 366 366 365 365 365 364 364 365 364 364 364 364 364 364 364 364 364 364 363 364 363 363 364 363 363 363 363 363 364 363 362 362 362 363 363 362 362 361
360 343 340 331 326 329 321 322 322 324 323 329 333 331 333 333 334 336 331 331 329 331 335 336 336 332 329 339 330 342 346 348 347 349 351 352 353 354 354 353 352 353 355 359 361 362 365 367 367 366 366 367 367 368 368 368 368 367 367 366 366 366 365 365 365 365 365 364 363 364 364 364 365 364 364 364 364 364 363 363 363 364 364 364 364 363 363 363 363 363 362 362 362 362 363 362 362
352 345 345 332 320 326 321 320 323 328 327 329 331 335 337 338 336 335 331 333 333 334 334 334 334 327 329 333 332 341 344 347 349 351 351 353 352 353 354 353 352 353 357 360 361 363 363 367 367 366 366 366 367 368 368 368 368 367 366 366 366 366 366 365 364 364 364 364 364 364 365 365 365 365 365 365 364 364 363 363 363 363 364 363 362 364 363 363 362 362 362 362 362 362 362 362 362
346 344 330 327 326 317 319 320 324 322 326 331 331 331 336 336 335 335 331 330 331 334 334 336 335 329 334 329 334 339 342 347 348 349 351 352 352 353 353 353 355 355 357 360 362 363 363 367 366 366 366 366 367 367 367 368 368 367 366 366 366 366 366 364 364 364 364 364 364 365 365 365 365 365 365 364 364 364 364 364 364 363 363 364 363 363 362 363 362 362 362 363 363 362 362 362 362
333 341 345 324 319 316 315 316 319 322 325 331 330 336 336 335 337 333 333 332 335 333 335 337 332 331 332 332 335 346 347 348 346 345 349 351 352 352 353 356 357 358 359 361 361 362 362 362 366 366 366 366 367 367 367 368 368 367 366 366 367 366 366 365 365 365 364 364 365 365 365 366 365 365 364 365 364 364 364 364 364 364 364 364 363 363 362 363 362 362 362 361 362 362 362 362 362
331 331 332 318 316 315 318 318 321 323 328 331 331 335 337 335 335 331 332 331 333 333 333 337 330 336 330 330 334 343 346 347 347 349 350 351 351 352 354 356 357 359 360 360 361 361 361 362 361 366 366 366 367 367 367 367 368 367 367 367 367 367 367 366 366 365 365 364 364 365 365 365 364 364 365 365 365 364 365 365 365 364 364 364 363 363 363 363 363 362 362 362 361 362 362 363 363
333 333 326 320 319 320 322 320 321 325 322 326 327 332 340 337 332 331 332 333 334 331 332 338 338 337 327 330 337 343 343 346 348 350 351 351 351 353 354 355 358 359 359 360 360 360 360 360 361 362 364 366 366 367 367 367 368 368 367 367 367 367 367 366 366 366 366 364 363 365 365 364 364 363 364 364 364 364 364 364 364 365 365 365 364 364 364 364 363 362 362 362 362 362 362 363 363
335 334 329 321 327 322 321 320 320 319 322 326 332 337 336 332 333 334 332 331 332 332 337 340 338 337 331 333 333 336 342 348 349 350 350 351 352 353 355 357 357 356 358 360 358 359 359 360 361 361 361 361 361 364 367 367 367 367 367 367 367 367 368 367 367 367 366 364 364 364 364 365 366 366 365 365 365 364 364 364 364 365 365 365 365 365 364 364 363 363 363 363 363 363 363 363 363
334 338 329 324 323 322 323 318 317 319 316 324 332 335 334 336 338 335 333 329 331 340 341 343 340 334 325 329 328 334 340 345 348 350 351 351 352 353 354 355 355 357 357 358 359 358 358 359 360 360 361 361 361 361 363 365 368 367 367 368 368 368 368 368 368 367 366 366 365 365 365 365 365 366 366 365 365 365 364 364 364 364 365 365 365 365 365 365 364 364 364 364 363 363 364 363 363
339 334 330 320 317 318 321 320 321 322 316 325 333 333 331 334 336 334 333 335 334 340 340 334 341 334 334 332 333 338 342 347 349 350 350 350 351 351 352 352 354 355 356 357 357 358 358 358 359 359 360 360 361 363 363 364 366 367 367 368 368 368 368 368 367 367 367 366 366 365 365 363 364 364 367 364 366 365 364 363 364 365 365 364 364 364 365 365 364 364 364 364 364 364 364 364 364
338 334 322 324 315 318 321 320 319 314 322 329 328 331 328 327 334 336 337 338 333 334 337 338 337 340 335 336 339 341 344 348 349 348 348 347 347 347 349 350 351 353 355 356 356 356 357 358 358 358 359 359 361 362 363 363 365 368 367 368 368 368 368 368 367 367 366 366 365 365 364 362 361 361 362 362 365 363 364 364 364 365 365 365 364 364 364 364 364 364 364 364 364 364 364 364 364
334 326 320 316 319 319 323 322 323 327 324 325 327 329 330 327 329 329 334 333 334 335 335 338 339 339 340 341 342 343 344 345 346 344 344 344 345 344 345 347 348 348 352 353 355 355 356 357 357 358 358 358 359 362 363 364 365 366 363 364 365 365 367 367 365 364 367 362 366 363 363 366 361 360 362 365 363 364 363 366 365 365 365 365 365 365 364 365 364 364 363 364 364 364 364 359 362
328 324 321 317 321 323 329 328 328 326 325 327 328 330 328 327 330 332 328 329 331 330 332 334 334 337 340 341 341 341 342 343 343 344 343 342 342 342 343 345 346 349 350 351 352 354 355 356 357 357 357 357 359 360 362 363 363 363 362 363 365 367 367 367 363 365 361 361 361 361 366 364 362 363 364 365 365 365 365 366 366 366 366 365 365 364 364 364 365 363 364 364 364 365 362 360 359
329 322 318 320 327 327 334 329 328 329 329 328 329 330 330 327 330 334 327 327 330 329 328 332 333 334 336 338 339 340 341 342 343 343 342 343 344 343 343 343 344 347 349 350 351 354 355 355 355 356 356 356 357 358 361 362 361 361 361 361 362 362 362 363 360 359 360 360 361 359 362 362 364 361 369 367 367 363 363 366 366 366 366 365 365 365 364 364 364 365 365 365 364 367 362 360 360
327 323 318 324 329 325 328 330 329 329 330 329 328 330 327 325 330 331 327 326 328 331 335 334 333 334 335 337 338 339 339 341 342 343 343 343 345 345 345 345 345 347 349 351 351 352 353 354 354 354 356 355 355 357 359 359 360 360 359 359 360 359 360 359 357 359 359 358 361 360 361 362 362 362 362 361 359 360 360 361 362 361 361 361 365 360 362 363 363 361 363 366 361 360 357 353 358
326 323 325 328 330 325 330 334 331 329 331 331 333 325 326 331 331 330 329 322 323 330 336 338 337 337 336 336 337 338 338 340 341 341 342 343 343 344 346 347 348 349 350 348 349 351 353 354 353 354 355 354 355 356 357 358 359 356 356 357 357 358 358 356 357 358 359 359 360 361 362 359 359 359 360 358 360 358 360 359 359 360 360 362 364 360 359 361 359 359 362 361 361 358 356 357 355
317 323 326 331 331 327 331 329 343 331 329 331 327 329 329 328 326 329 329 327 329 336 339 339 339 339 339 339 338 337 337 339 340 341 342 343 344 345 346 347 347 347 349 348 351 351 353 354 353 354 354 354 354 355 354 356 355 354 354 355 354 355 356 354 356 356 358 360 360 360 358 357 357 358 356 358 361 361 360 360 361 359 359 358 362 360 360 361 359 360 358 357 359 356 354 353 354
323 318 328 330 332 329 331 329 330 330 330 329 331 332 326 328 324 330 327 330 333 337 340 340 340 341 341 338 338 337 338 339 340 342 343 344 346 346 347 348 349 350 349 349 351 351 353 353 353 353 353 353 353 353 351 352 353 352 352 358 354 355 355 353 354 356 360 360 361 360 357 355 354 354 356 358 359 361 361 362 362 359 360 359 363 359 358 357 358 359 359 357 359 358 355 354 355
320 319 323 330 331 330 332 331 330 331 331 332 331 327 326 326 328 328 325 329 335 338 339 339 339 339 339 338 338 338 338 340 340 342 344 345 347 348 349 350 350 350 349 350 352 351 351 353 353 353 353 354 353 353 350 351 350 351 352 352 350 359 352 352 352 357 359 360 362 360 359 354 354 353 354 356 358 356 359 360 358 357 358 356 360 358 357 357 359 358 364 359 360 361 357 355 357
322 322 324 327 329 330 329 330 330 331 332 331 328 327 329 326 328 324 327 330 335 339 338 338 338 337 337 337 338 338 338 339 340 341 341 343 346 346 347 349 350 350 350 352 352 351 351 353 352 353 353 354 353 353 350 348 348 348 350 350 350 358 352 351 356 357 358 359 360 361 362 356 355 352 354 356 356 355 356 357 357 357 356 357 357 354 356 360 360 362 362 358 359 359 355 356 359
325 323 323 323 328 327 330 329 329 332 331 330 327 327 327 329 325 317 331 333 337 338 337 337 337 336 336 337 338 338 338 338 339 341 341 342 343 345 347 348 349 350 352 351 352 352 352 352 352 354 354 355 353 351 350 349 349 350 351 351 352 353 354 357 357 356 358 358 358 361 363 359 355 358 357 356 356 356 357 355 357 357 355 358 355 355 361 359 361 359 360 358 360 359 359 357 358
322 323 324 323 327 329 330 329 329 331 329 330 327 328 328 328 324 321 329 333 335 335 336 336 336 335 336 337 337 338 338 339 339 340 339 339 342 345 346 346 348 349 351 351 351 353 353 352 352 354 354 354 353 351 353 351 350 353 352 352 352 354 356 355 355 356 359 357 358 359 363 363 364 361 359 358 357 358 359 356 356 357 357 363 359 358 362 363 357 357 363 362 363 362 361 358 358
321 320 316 319 322 325 328 328 330 331 326 329 329 324 321 324 322 324 331 333 333 334 335 335 335 336 336 337 338 338 338 339 339 339 339 340 343 345 345 348 348 349 351 352 353 353 353 352 352 353 354 355 352 351 354 352 352 354 353 352 355 357 356 356 355 355 356 358 359 360 362 364 366 366 360 360 365 360 360 356 358 361 364 361 364 365 365 365 361 360 361 362 360 356 355 353 357
321 319 315 315 317 316 323 329 330 328 327 329 328 314 314 322 326 326 331 331 332 331 331 333 335 336 336 337 337 338 338 339 338 339 340 340 342 343 342 347 349 350 350 352 353 351 354 355 355 355 355 355 353 352 354 352 352 353 355 354 359 356 355 356 357 357 356 362 359 361 361 365 364 364 365 361 360 359 361 359 357 360 362 364 366 367 360 360 360 358 358 358 364 354 350 352 352
313 316 316 310 310 310 321 323 323 322 327 327 327 310 313 321 325 328 330 331 330 328 329 330 334 335 336 336 337 337 337 339 338 340 340 341 342 342 341 345 349 350 350 350 351 350 354 354 356 356 356 355 355 353 354 352 353 354 355 354 357 355 354 355 354 357 360 361 361 361 361 365 363 362 365 361 360 359 359 360 359 360 363 366 366 362 361 358 360 356 357 356 357 352 350 354 355
313 309 306 310 308 312 320 324 323 318 324 328 324 312 312 320 324 328 331 330 330 327 328 330 333 334 335 336 337 337 338 339 340 341 341 342 342 342 342 344 348 349 349 350 352 351 352 353 355 356 356 355 354 353 353 353 354 354 355 360 357 355 353 354 353 353 359 360 362 362 362 364 362 365 365 363 358 359 359 362 361 364 365 365 364 364 362 358 357 357 358 360 353 351 355 352 353
310 308 307 308 310 312 315 321 323 322 322 324 322 313 317 318 323 328 330 329 329 327 328 329 331 334 333 335 336 336 337 338 339 340 341 342 342 342 342 344 347 349 350 350 350 350 351 352 354 354 354 354 353 355 353 355 354 355 355 356 357 355 354 352 354 354 356 359 360 361 362 364 361 362 365 363 360 357 359 361 361 363 364 365 362 363 361 361 357 357 361 362 359 357 350 353 350
304 309 306 310 309 312 310 318 321 322 320 317 322 317 317 318 324 328 329 330 329 328 328 329 329 332 332 335 336 336 336 336 337 338 339 341 342 342 343 347 346 348 350 351 351 350 350 352 352 353 354 355 353 355 354 355 355 356 355 355 358 354 355 353 353 354 354 356 358 360 363 363 362 362 364 362 361 360 360 359 359 363 364 364 359 360 360 362 356 354 359 360 363 358 353 349 348
303 305 305 307 311 312 312 312 317 320 320 317 318 317 317 319 326 326 328 330 329 328 328 330 329 330 331 335 335 336 336 336 337 338 340 341 342 343 343 344 345 347 349 350 351 351 350 351 351 352 353 354 353 356 356 357 357 357 355 355 355 354 355 353 353 353 353 355 357 360 363 363 363 362 363 363 360 362 357 357 359 364 362 364 361 361 360 360 360 360 357 358 363 359 356 354 349
308 309 308 308 307 308 310 315 319 319 316 315 316 314 316 316 324 326 327 328 328 328 329 330 329 330 330 333 335 336 336 337 339 339 341 342 343 343 344 344 345 346 347 350 350 350 349 349 349 351 353 354 353 357 356 355 355 354 352 352 353 353 353 356 354 352 352 353 356 361 362 363 362 362 362 363 359 360 357 355 359 364 362 362 362 359 358 356 357 356 357 357 355 359 359 358 351
311 311 311 309 309 310 315 316 318 320 317 314 315 316 316 317 323 326 326 327 327 326 327 328 328 329 329 332 334 335 336 337 340 341 340 342 343 343 344 344 345 345 346 348 348 349 349 348 350 350 352 354 353 355 354 353 352 352 350 350 350 352 352 353 355 351 351 351 358 361 362 362 362 362 363 362 360 363 360 358 358 361 363 362 359 357 361 359 360 361 362 361 355 353 353 353 353
308 309 309 307 310 307 313 314 317 319 315 313 315 314 315 317 319 325 327 325 324 326 326 326 327 329 330 331 334 335 336 339 340 340 340 341 342 343 344 344 346 343 344 347 346 348 349 349 350 351 353 354 354 356 354 353 353 352 350 350 349 351 351 351 351 351 349 354 361 361 362 362 362 362 363 362 362 360 359 359 359 359 362 361 360 362 361 363 360 359 360 356 357 353 350 353 351
308 307 307 306 307 311 314 314 316 316 315 310 315 312 313 316 319 321 325 325 325 326 326 326 327 329 330 331 333 335 336 336 338 339 340 340 342 342 343 344 345 345 344 346 346 348 349 349 350 352 353 354 354 356 354 352 353 354 352 351 351 350 353 354 352 353 352 351 360 361 362 362 362 362 363 363 361 361 359 357 361 362 363 364 361 360 361 359 358 358 358 352 349 353 352 354 349
306 307 306 304 308 306 302 311 314 315 313 310 313 312 312 316 318 319 322 324 326 327 327 327 330 329 331 332 333 335 336 336 336 337 338 339 341 342 342 343 344 346 345 346 346 347 349 349 349 352 353 355 354 356 356 354 355 355 355 353 352 352 351 353 353 353 353 353 358 361 361 362 362 362 363 363 362 361 359 358 362 363 362 364 362 360 360 360 359 357 357 356 350 346 347 347 350
307 308 308 307 307 307 307 306 312 313 315 315 312 310 308 312 312 315 320 328 327 327 327 327 328 330 333 334 335 337 336 336 336 337 338 338 339 340 341 343 344 346 345 346 346 348 349 348 350 351 353 354 355 357 355 354 356 354 354 354 354 352 352 350 350 349 349 353 354 358 359 361 362 362 362 362 362 361 360 360 362 362 362 363 363 361 360 360 360 359 358 356 354 349 345 344 347
305 309 309 309 309 307 309 310 309 306 306 313 311 300 301 309 312 314 318 321 322 327 325 325 326 328 331 332 334 336 338 338 337 337 337 339 338 340 341 343 343 345 345 347 347 348 349 348 351 352 353 354 354 356 355 355 354 352 350 349 346 347 345 346 345 347 347 348 350 355 360 361 362 361 361 361 361 361 360 362 362 363 362 363 364 363 361 361 360 359 358 354 353 353 346 344 340
303 305 311 310 309 309 309 308 306 298 297 309 315 302 297 307 310 313 315 317 319 324 325 325 326 328 331 332 335 336 336 337 338 338 338 339 338 339 340 342 344 344 346 348 348 348 348 350 350 352 352 353 355 355 355 355 352 352 350 349 347 345 345 346 347 350 351 350 350 349 358 359 360 360 361 361 361 361 361 363 362 362 363 363 367 363 361 361 361 359 360 356 354 356 349 344 337
302 310 310 310 308 308 309 308 305 301 307 310 313 308 299 299 307 313 315 314 315 316 321 324 326 328 331 333 336 336 337 337 338 338 338 339 339 339 340 342 343 344 347 348 349 349 348 351 350 352 352 354 354 355 354 354 352 351 350 350 349 346 349 346 348 349 352 353 350 349 356 357 358 358 359 360 360 360 361 364 363 362 363 364 365 363 362 361 360 362 361 358 358 355 350 346 341
305 310 311 308 309 309 309 307 304 302 302 296 306 310 301 300 306 312 313 311 312 313 316 323 325 328 331 334 336 337 337 338 339 338 338 338 339 339 341 342 344 345 348 348 349 349 349 352 351 351 352 353 353 354 353 353 354 352 350 350 349 349 349 352 352 350 352 356 350 350 354 356 358 358 359 360 360 359 362 363 364 363 363 363 365 364 364 362 359 359 358 355 354 353 351 352 342
309 311 313 312 311 310 309 305 303 301 299 294 301 308 299 298 305 308 312 311 311 313 315 318 325 328 331 333 335 337 337 338 339 340 339 339 340 341 342 343 344 345 347 350 350 351 350 352 352 350 352 352 353 353 353 352 353 353 350 349 349 349 350 352 353 351 351 356 349 349 354 355 357 358 358 359 359 359 361 363 365 365 363 363 364 363 362 362 362 360 358 356 355 351 352 348 343
312 311 309 308 307 306 307 304 301 299 294 296 302 304 303 295 303 306 307 310 313 314 316 317 325 328 332 333 334 335 338 338 339 339 340 340 341 341 342 343 344 345 347 349 349 351 351 353 353 350 352 353 354 353 352 351 352 352 351 349 350 350 350 350 352 351 351 354 351 349 354 355 357 357 358 358 359 359 360 363 365 365 365 364 364 361 361 361 361 361 361 358 354 352 350 343 352
310 306 305 302 300 302 301 299 300 293 291 297 302 302 303 292 297 307 312 315 316 316 315 316 318 328 330 332 334 335 339 339 339 339 339 340 339 340 341 343 343 344 346 348 349 351 352 352 353 351 352 353 354 353 352 352 352 352 352 351 350 352 352 350 352 351 351 351 354 351 353 355 355 356 356 356 358 359 359 361 364 364 364 362 362 362 361 361 361 362 359 357 354 354 350 344 346
308 305 303 296 293 295 291 294 291 291 290 297 302 302 298 297 300 307 311 312 316 318 318 318 319 325 328 331 333 335 339 339 339 338 339 339 339 339 340 343 343 343 345 348 349 351 353 353 353 351 351 353 354 354 352 352 352 352 352 352 352 353 353 352 352 353 353 352 352 354 351 354 354 354 355 354 356 358 358 359 361 361 361 362 362 361 361 361 359 360 359 357 355 354 349 344 344
305 303 298 295 290 289 285 288 293 292 297 300 299 302 296 301 303 308 308 310 313 318 320 320 319 327 328 331 333 335 338 339 339 339 339 339 340 340 340 342 343 344 345 348 350 352 353 353 354 352 352 354 354 355 352 352 352 353 353 353 353 354 354 353 353 353 355 354 354 354 354 352 355 354 355 354 356 358 358 360 361 361 361 362 362 360 360 360 358 358 359 357 356 355 352 348 345
304 307 302 297 295 292 287 288 286 289 292 296 301 296 292 295 297 309 310 312 313 314 320 320 319 329 330 333 335 335 336 337 338 338 339 339 340 341 341 342 344 345 345 347 349 351 354 353 354 353 352 353 354 355 353 352 352 353 354 354 354 354 354 354 354 355 356 355 356 354 355 354 356 356 356 357 358 357 358 359 361 361 362 362 362 361 361 360 360 359 359 357 357 355 355 349 346
306 306 305 298 297 299 291 294 294 294 294 295 295 294 299 298 307 311 310 312 313 314 314 319 318 328 330 331 333 333 334 335 337 337 339 340 341 341 341 342 344 345 345 347 349 351 353 354 354 354 354 354 354 355 355 353 353 353 354 354 354 355 355 355 354 355 356 357 356 356 355 356 355 357 358 359 359 358 358 360 361 361 362 363 361 361 360 359 360 359 357 356 356 358 356 349 348
302 303 298 300 306 303 299 303 301 303 297 292 302 301 300 304 306 306 308 309 311 312 312 313 317 324 328 328 331 331 333 334 336 337 338 340 341 341 341 343 345 345 345 345 347 350 353 355 355 355 355 355 355 355 355 355 354 353 353 354 354 354 354 354 354 354 355 357 357 357 356 357 358 357 358 361 360 358 358 360 361 361 361 362 362 361 361 359 360 359 359 356 355 357 356 349 349
303 299 301 307 309 307 300 292 296 292 289 292 298 296 295 297 293 306 305 306 308 309 311 312 312 322 325 328 329 330 331 332 336 338 339 339 341 341 341 343 345 346 346 345 347 349 353 356 356 355 355 355 355 356 356 356 354 353 353 354 354 354 354 355 355 355 355 355 357 358 358 357 358 359 359 360 360 358 357 362 360 360 361 361 362 361 360 360 360 358 359 358 357 356 355 351 350
305 303 310 302 294 295 297 300 290 289 289 290 295 298 297 298 298 302 303 305 305 307 310 311 310 320 322 327 328 330 331 332 334 336 337 338 339 340 341 342 345 346 347 346 347 351 353 356 358 357 356 357 357 357 357 357 356 355 354 354 354 354 355 355 355 356 355 353 355 358 358 359 360 360 360 358 358 358 358 358 359 359 360 360 361 361 360 360 361 358 358 359 357 355 353 351 350
312 310 306 308 302 297 294 297 298 296 291 292 292 296 292 301 302 304 304 306 306 307 308 309 311 318 322 325 328 329 330 331 333 334 336 337 338 340 341 342 344 345 346 346 347 351 353 355 357 358 358 358 358 357 357 356 356 356 355 355 355 355 355 355 355 355 354 353 353 357 359 359 360 360 360 360 358 358 358 359 358 359 359 360 360 361 361 360 362 359 359 358 358 356 354 350 349
304 303 301 303 302 304 302 302 297 295 293 292 292 291 298 304 308 307 306 307 308 309 309 310 311 315 323 325 326 328 331 331 332 334 335 337 338 339 341 342 344 346 347 348 348 350 353 355 357 358 357 357 357 357 357 357 357 356 356 354 354 354 354 355 355 355 355 354 353 354 357 360 361 360 359 359 358 358 357 358 359 359 359 360 360 360 362 361 361 360 359 359 358 356 355 351 350
305 303 300 301 299 296 294 291 301 299 295 288 294 293 301 307 313 310 309 310 310 310 310 311 312 312 322 326 327 327 331 331 332 333 334 337 338 339 340 341 342 344 348 348 349 351 352 354 357 359 359 358 357 357 357 357 357 357 355 355 354 354 355 356 355 355 355 355 354 354 355 358 359 360 359 357 358 358 358 356 359 359 359 360 360 360 361 362 361 360 359 360 359 357 355 354 350
Wind_Speed
10 8 6 6 2 2 2 1 2 1 1 2 4 0 1 2 2 2 2 4 3 6 7 5 9 4 4 3 9 9 12 5 1 5 5 5 12 16 12 16 14 12 11 9 7 7 9 11 16 14 15 20 19 19 19 18 18 17 18 18 18 17 17 17 18 17 18 18 18 18 17 18 17 17 16 17 16 16 16 16 16 16 15 15 15 15 15 15 15 14 13 12 12 12 13 13 13
8 8 8 8 5 3 1 1 1 2 2 3 3 1 2 1 2 3 4 2 2 3 7 8 5 7 5 13 7 9 13 8 7 9 7 13 16 12 16 18 16 14 11 9 7 7 7 9 14 16 18 20 19 19 19 18 17 17 18 18 17 17 17 17 17 18 17 17 18 18 17 17 17 17 16 16 16 16 16 16 16 15 16 15 14 15 15 15 14 14 12 12 12 12 13 13 13
8 8 6 6 2 1 0 1 1 2 4 2 1 1 2 3 4 5 4 3 4 5 6 9 14 10 9 8 11 5 4 7 17 13 11 15 15 11 18 17 14 13 13 9 7 8 7 8 12 18 20 19 19 19 19 18 18 18 17 17 17 17 17 17 17 17 17 17 17 17 17 17 17 16 16 16 16 16 16 15 16 15 16 15 14 15 15 15 14 14 13 12 12 13 13 13 13
8 1 5 1 1 2 1 1 1 1 2 2 3 3 4 2 3 8 1 3 4 0 5 4 6 6 12 13 11 15 9 6 8 17 11 13 9 15 17 17 15 12 11 9 8 7 7 9 14 17 19 20 20 19 19 18 18 18 17 17 17 17 17 17 17 17 17 17 16 17 16 16 16 16 15 15 16 16 15 15 15 16 14 15 15 15 15 14 14 14 13 13 12 12 12 13 13
5 3 4 2 0 1 1 1 2 1 3 2 2 2 5 1 5 9 7 3 6 6 9 7 9 8 13 13 5 4 7 11 10 8 11 10 15 16 17 17 14 13 12 12 9 8 8 15 15 17 19 20 20 19 18 18 17 17 17 17 17 17 17 17 17 17 17 16 16 16 16 16 15 15 15 15 15 15 15 16 15 15 15 15 15 14 15 14 13 13 13 13 12 12 12 12 12
4 5 3 2 1 1 2 1 2 4 4 3 3 3 2 5 6 10 8 3 2 2 7 10 8 7 6 7 5 9 13 8 9 9 12 14 19 20 18 15 15 13 13 12 11 10 10 16 17 19 19 20 21 19 18 17 18 17 17 17 17 17 17 17 17 17 17 16 16 16 16 15 15 15 15 15 15 15 15 15 15 15 15 15 14 14 14 14 13 13 12 12 12 12 11 11 11
3 3 0 1 1 0 2 3 4 5 4 8 4 4 7 7 6 10 9 6 4 0 3 13 15 14 10 7 12 8 7 14 10 12 12 18 19 19 18 15 14 14 13 11 11 11 13 19 21 20 20 20 20 19 18 17 18 17 17 17 17 17 16 16 16 16 16 16 16 16 15 15 15 15 15 15 15 15 15 15 15 15 15 15 14 14 14 14 13 12 12 12 11 11 11 11 10
2 1 0 0 1 2 3 4 6 2 1 9 3 5 6 8 8 3 11 9 3 5 6 13 8 9 11 8 9 12 15 7 16 18 20 18 19 19 17 16 15 15 14 12 10 10 18 19 18 20 21 20 20 19 18 18 17 17 17 17 17 17 16 16 17 17 16 16 16 15 15 15 15 15 15 15 15 15 15 15 15 15 15 15 14 14 14 13 13 12 11 11 11 11 10 10 10
2 1 2 1 1 1 3 5 5 3 5 2 4 7 3 3 11 6 10 9 10 8 8 13 13 13 9 13 9 9 12 17 19 21 20 21 20 19 14 15 15 14 14 12 11 11 12 18 19 20 20 20 20 18 18 18 17 17 17 17 17 16 16 16 16 16 16 15 15 15 15 15 15 15 15 15 15 15 15 15 15 15 15 14 14 14 13 13 13 12 12 11 10 10 10 10 9
2 2 0 1 1 3 4 2 0 3 1 4 4 7 6 4 8 14 10 15 12 13 11 11 8 15 13 14 13 11 11 21 22 20 19 21 20 17 16 16 16 17 15 13 11 11 10 18 20 20 20 20 20 18 18 17 17 17 17 17 16 16 16 16 16 16 16 15 15 15 15 15 15 15 15 15 15 14 15 15 14 14 15 14 14 14 13 13 12 12 12 11 10 10 10 9 9
2 2 0 1 1 2 2 6 4 1 4 5 7 4 11 12 8 8 11 12 13 12 15 17 14 17 14 10 8 11 19 20 21 21 20 20 18 18 16 15 16 17 16 16 14 11 11 12 21 20 19 19 19 18 17 17 17 17 17 16 16 16 16 16 16 16 15 15 14 14 15 15 15 14 14 14 14 14 14 14 14 14 14 14 14 14 13 13 12 11 11 10 10 10 9 9 9
0 2 1 0 1 2 4 5 7 2 6 3 3 12 11 10 10 8 15 14 13 15 16 11 10 15 13 13 10 14 18 19 19 19 18 17 15 18 17 14 16 16 17 16 14 11 11 11 11 17 19 19 19 18 17 18 17 17 16 16 16 15 15 15 16 15 15 14 14 14 14 15 14 15 14 14 14 13 13 13 13 13 13 13 13 13 13 12 12 11 10 10 9 9 9 9 8
2 2 1 1 2 1 4 6 5 6 4 8 10 8 4 7 12 13 14 16 16 17 12 12 18 13 13 10 11 16 18 18 18 18 18 15 15 15 16 15 16 17 16 15 14 13 12 10 10 10 14 20 19 18 18 18 17 16 16 16 15 15 15 15 15 15 14 14 14 14 14 14 14 14 14 14 13 13 13 13 13 13 13 13 13 13 12 12 11 11 10 9 9 8 8 8 7
4 3 3 2 1 3 5 6 8 1 2 10 5 7 8 7 7 10 13 16 16 12 14 19 14 15 15 12 12 13 15 19 20 20 16 17 14 15 17 15 18 16 16 15 13 13 11 10 9 10 11 10 10 14 17 18 17 17 16 15 15 15 15 14 14 15 14 14 14 14 14 14 14 14 13 13 12 12 12 11 12 12 12 12 12 12 12 11 10 10 10 9 8 8 8 7 6
6 2 1 2 2 3 4 5 2 2 2 6 16 13 13 9 8 6 7 14 11 15 17 14 16 15 11 16 12 13 18 22 20 15 15 15 17 16 18 16 16 15 15 15 14 13 12 11 10 9 9 8 9 7 7 12 17 17 16 15 15 15 14 14 14 13 13 13 13 13 13 14 13 13 12 12 11 11 11 11 11 11 11 11 11 11 11 11 10 9 8 8 7 7 7 6 5
6 3 1 2 3 3 5 6 6 4 1 4 18 17 6 13 9 9 9 10 11 14 16 12 12 5 17 11 17 19 21 21 19 18 16 16 14 14 15 15 14 14 12 13 13 12 12 11 10 9 9 8 7 7 7 8 14 16 16 16 15 15 14 14 14 13 13 12 12 12 12 10 11 9 12 9 11 11 10 8 10 10 10 10 10 9 9 9 9 8 7 6 6 5 5 5 4
6 3 4 1 5 2 3 3 5 1 3 6 3 12 12 9 11 8 10 10 16 16 14 17 10 17 19 15 18 22 23 21 19 22 18 13 13 11 11 11 12 12 10 12 11 11 12 12 11 9 9 9 9 8 7 7 10 16 13 15 16 15 13 13 13 13 11 11 10 11 10 5 4 4 6 4 9 6 9 9 9 9 9 8 8 8 8 7 7 7 6 6 5 4 3 4 3
3 2 2 7 6 6 4 6 4 6 5 6 7 7 12 2 8 5 15 11 11 15 12 13 15 13 17 17 19 20 20 22 21 20 17 14 11 11 10 10 11 11 11 11 10 12 11 11 11 10 9 10 9 7 6 6 7 11 7 7 7 10 10 11 8 5 7 4 9 7 3 4 5 4 5 7 4 5 6 9 9 9 9 8 7 6 5 6 6 6 5 4 4 4 3 1 1
7 4 5 9 4 4 3 5 7 3 6 9 4 4 16 11 9 1 10 13 12 12 14 18 17 17 18 20 20 19 21 23 21 19 19 17 13 15 13 11 11 12 12 10 10 12 11 11 11 11 11 10 11 8 7 6 7 6 6 6 6 8 7 7 5 6 4 4 4 4 3 4 5 3 3 6 5 8 6 9 9 9 8 8 6 5 5 5 5 4 5 4 3 4 2 1 2
9 6 7 8 5 6 3 5 6 7 6 7 8 9 6 8 11 7 8 13 9 10 14 15 19 21 21 21 21 20 19 22 20 20 19 16 14 15 15 14 12 12 12 11 11 10 11 11 11 11 11 11 10 8 7 7 6 6 6 6 5 5 5 5 5 5 6 5 5 4 4 4 4 5 7 11 9 5 5 7 8 8 8 7 6 3 4 4 4 4 5 6 3 3 2 2 3
8 10 6 6 8 7 4 6 7 6 6 7 8 8 5 1 7 8 12 12 11 12 13 20 22 23 22 22 21 20 18 22 22 20 19 16 14 12 13 12 12 12 11 11 9 11 12 12 11 11 10 11 10 8 8 8 7 7 6 6 6 5 5 5 5 5 5 6 5 5 5 4 5 4 2 4 5 5 3 2 3 3 3 3 4 0 2 2 3 2 2 2 2 2 2 3 3
5 10 11 8 5 6 5 5 3 1 3 4 9 5 8 6 11 10 11 10 9 10 17 19 21 22 23 21 20 17 18 21 22 21 19 19 18 14 13 12 11 10 11 10 11 12 12 12 11 11 10 11 10 9 9 9 8 7 7 7 6 5 6 5 5 5 5 6 5 5 5 5 5 4 3 4 5 5 4 4 4 3 3 4 3 3 2 3 3 4 3 4 4 4 5 5 4
9 7 8 7 8 6 4 4 2 3 4 3 6 9 3 5 1 7 12 10 11 12 19 19 20 20 22 20 19 17 17 20 21 21 21 20 17 16 15 13 13 12 10 10 11 11 12 12 11 11 10 11 10 9 8 8 7 7 7 7 7 6 6 6 5 5 5 5 5 5 6 5 5 4 4 3 5 5 5 5 4 4 3 4 3 2 2 2 2 3 4 5 4 5 5 4 3
11 7 8 13 12 8 6 7 7 8 9 9 12 9 10 5 7 9 12 11 17 17 21 20 20 19 19 19 19 19 17 18 20 19 20 20 19 18 16 15 13 11 10 11 11 11 11 13 12 11 11 11 9 10 9 8 7 8 8 7 8 7 7 7 6 6 6 6 5 5 6 5 6 5 4 4 5 4 4 4 4 3 3 3 2 2 1 2 2 1 1 1 1 3 5 5 5
12 10 9 10 9 9 9 9 8 10 10 9 9 6 10 11 7 6 11 14 20 20 19 20 20 19 18 19 18 17 17 16 17 17 15 15 19 18 15 11 12 12 12 13 11 12 13 12 13 11 12 10 10 10 10 8 7 7 8 7 8 7 7 7 6 6 6 6 5 5 5 5 5 5 5 5 5 5 4 4 4 3 2 3 3 3 2 2 2 2 2 2 2 2 1 1 2
10 11 14 10 13 11 6 7 9 9 5 8 5 9 11 5 8 4 11 13 21 21 20 20 20 20 19 19 18 16 15 17 17 18 16 17 17 20 17 14 12 13 13 13 13 11 11 12 15 12 13 10 10 10 9 9 7 6 8 7 7 7 7 7 5 6 6 6 5 5 5 5 5 5 6 5 6 5 5 4 4 4 4 4 4 4 4 4 2 1 1 2 0 1 1 1 1
10 16 14 12 15 11 11 11 9 9 8 11 10 2 13 10 8 8 14 17 20 21 20 18 19 19 18 17 17 16 17 18 19 16 13 16 15 16 17 16 15 12 13 14 13 12 11 12 14 12 12 9 9 8 9 9 8 6 8 7 6 6 6 6 6 6 6 6 6 6 4 5 4 5 7 7 5 6 5 5 5 4 4 4 4 4 3 3 3 3 3 2 2 0 2 1 1
13 12 14 16 13 17 15 11 10 6 7 15 13 18 5 12 10 11 17 16 21 21 19 20 17 16 16 17 15 13 14 17 14 16 16 16 13 14 16 14 16 14 15 14 12 12 12 13 14 12 12 10 9 8 10 9 8 6 8 7 6 6 6 5 6 6 6 6 6 6 4 5 5 5 7 6 6 6 5 6 5 5 5 5 5 4 3 4 4 1 1 2 1 3 2 2 2
15 13 13 9 6 9 9 11 12 11 9 11 9 6 9 1 7 11 20 18 19 20 21 19 17 15 16 16 15 14 12 15 14 11 15 11 14 14 17 15 15 13 13 13 13 13 14 14 13 13 12 9 10 8 9 9 7 5 7 7 6 6 6 5 5 6 6 5 7 6 5 5 4 5 6 6 6 6 6 5 4 3 2 1 1 2 2 2 3 1 2 2 3 3 3 2 3
11 11 7 6 9 10 12 11 12 14 9 10 9 4 7 5 9 10 21 18 17 17 18 18 15 15 13 14 15 13 13 11 16 11 13 10 15 14 16 17 17 13 12 10 14 14 12 11 10 10 12 10 10 7 6 8 7 5 6 7 6 7 6 6 6 5 6 5 6 5 5 5 4 4 5 5 5 5 5 5 5 4 3 3 2 2 3 3 4 1 1 0 3 2 2 4 3
9 10 8 7 4 5 10 12 13 15 9 11 10 7 8 12 13 19 18 18 20 17 16 15 16 15 14 12 13 13 15 10 17 11 16 10 14 13 14 16 17 15 12 12 16 15 13 13 10 10 12 10 11 7 8 9 6 6 6 6 6 6 5 5 5 5 5 6 6 5 5 5 5 4 4 6 5 5 5 5 5 5 4 3 4 3 4 1 2 2 1 1 4 2 4 2 2
7 4 4 5 6 2 10 12 13 11 7 10 6 6 4 13 18 20 21 19 20 17 17 16 17 15 16 13 15 14 13 12 15 12 15 13 13 12 15 17 16 17 16 14 15 15 12 13 12 11 13 11 12 7 8 9 7 7 6 6 5 6 6 5 5 5 6 6 6 6 5 4 5 4 4 5 5 4 5 4 5 4 3 3 4 2 3 4 2 0 1 3 6 4 2 2 2
6 7 4 5 7 7 8 11 10 15 9 13 12 4 6 8 14 17 20 23 20 17 17 15 17 20 17 14 15 14 12 14 14 14 15 14 12 11 14 16 16 18 15 15 16 15 13 13 13 13 15 12 13 7 9 7 7 7 7 7 6 6 6 6 5 5 6 6 6 6 6 5 4 4 4 5 6 5 4 4 4 4 3 3 3 2 2 3 3 2 1 2 3 2 1 0 1
6 6 7 6 7 9 10 6 13 14 15 9 16 10 8 6 18 20 21 20 19 14 17 15 14 16 16 15 16 15 14 15 16 16 17 16 12 13 14 14 16 18 16 16 16 16 16 13 13 13 13 13 11 7 9 7 7 6 7 6 6 6 5 6 6 5 6 7 7 6 6 6 5 4 4 4 5 5 5 5 4 4 4 3 3 2 2 3 3 2 2 1 1 2 2 1 3
7 6 8 9 9 9 10 11 9 16 19 13 16 12 11 5 19 20 18 20 18 14 14 13 12 14 15 16 15 17 14 16 15 15 17 17 16 13 14 15 16 17 14 16 16 13 13 12 11 12 14 12 12 7 8 7 7 5 7 6 7 7 5 5 6 5 6 7 7 8 7 6 6 5 4 4 4 4 5 5 4 4 3 3 3 2 2 2 1 3 3 2 1 0 2 3 5
13 11 8 8 9 8 10 11 12 15 19 13 15 13 13 7 20 18 16 18 17 16 16 13 12 10 13 15 15 16 14 16 13 14 16 16 15 13 14 14 14 15 14 15 16 13 14 14 11 11 13 12 11 7 8 7 7 7 7 5 7 6 6 5 6 5 6 7 7 9 8 7 7 6 4 4 5 4 5 5 4 4 4 3 3 3 2 2 1 3 4 3 2 0 2 2 1
12 15 11 11 12 9 11 15 11 12 16 16 13 12 15 11 15 19 20 19 19 18 16 15 14 12 13 13 15 16 16 15 13 14 13 18 17 14 12 14 14 15 15 16 16 15 13 15 13 14 13 13 11 8 9 8 9 6 5 7 7 7 7 5 4 6 5 6 8 9 9 7 8 6 6 5 5 5 4 5 5 4 4 4 4 4 3 3 3 2 2 3 2 1 1 2 1
15 12 12 8 11 10 11 12 16 9 10 14 12 13 12 13 15 19 17 19 18 19 17 16 17 15 14 14 15 17 14 10 13 12 11 14 16 16 13 14 14 17 15 17 17 16 13 15 13 13 12 13 13 10 10 9 8 8 8 7 5 6 7 6 5 5 6 4 8 9 8 8 8 7 6 6 5 5 4 5 6 6 5 5 5 3 3 3 2 3 3 2 0 2 2 2 1
14 12 10 10 8 9 12 16 16 8 15 8 16 12 10 13 15 16 20 19 15 18 17 16 16 15 14 14 15 14 13 13 14 14 15 11 18 18 13 14 15 17 17 17 17 16 15 14 12 12 12 13 13 10 10 10 7 7 7 5 7 5 4 5 4 4 6 6 8 9 9 8 8 7 7 6 6 5 5 4 5 6 6 5 5 4 4 4 4 3 4 4 2 1 3 2 3
11 10 10 10 11 8 5 13 15 6 7 8 12 14 9 9 10 12 19 22 14 17 17 14 15 16 17 17 16 16 17 15 17 18 18 13 17 17 14 15 15 15 16 14 16 16 14 14 13 12 13 13 13 11 10 9 8 8 5 5 5 6 6 4 4 4 4 5 9 9 8 8 9 8 7 7 6 6 6 5 4 5 6 4 6 5 5 4 4 3 4 3 4 3 3 3 4
14 13 10 11 14 13 12 5 12 8 10 11 10 8 5 9 8 8 11 24 21 18 19 19 17 19 20 19 17 17 20 18 18 18 18 15 16 19 17 15 15 15 17 16 17 16 13 17 15 15 13 13 13 13 12 10 8 9 6 5 4 5 5 6 4 5 6 4 7 8 9 9 9 8 8 8 6 7 6 6 5 6 6 5 4 5 5 5 5 5 5 5 4 3 1 3 2
12 17 14 12 13 16 16 16 11 7 6 12 14 4 6 6 11 13 12 11 17 18 19 20 19 17 19 19 19 17 17 17 19 20 20 18 14 16 15 15 16 15 17 17 17 17 15 15 15 15 12 12 14 14 14 12 10 10 10 8 9 7 9 9 10 10 9 7 8 7 9 9 9 8 8 8 8 6 7 7 6 6 6 5 6 6 5 4 5 6 6 6 6 4 2 2 3
11 12 17 18 15 13 15 16 11 4 5 10 15 12 6 7 12 13 13 17 18 17 21 21 20 18 18 19 18 19 18 16 16 17 16 16 14 14 17 17 18 17 18 16 16 16 16 15 14 15 14 12 13 14 15 12 11 10 12 11 11 9 10 9 9 7 8 8 5 8 8 9 9 9 9 9 8 8 7 7 7 6 6 6 5 6 5 6 6 6 6 5 6 6 4 3 3
10 8 16 18 18 17 16 14 11 5 4 3 16 10 6 7 9 11 13 14 14 16 20 24 18 17 20 19 20 19 20 19 18 17 18 18 18 16 18 19 18 18 17 17 16 15 16 16 15 14 13 13 13 14 15 13 12 12 12 10 10 9 9 10 9 8 6 8 7 8 7 8 9 9 8 8 8 8 7 7 7 6 6 6 6 6 6 5 5 5 6 7 5 4 5 4 4
7 9 13 18 18 17 17 13 10 6 4 5 9 11 4 4 6 9 12 13 12 13 13 25 20 19 20 21 21 21 22 22 20 19 19 19 20 18 15 18 17 15 16 17 17 17 17 16 16 14 14 13 14 16 16 15 12 13 13 11 10 8 7 7 7 8 7 8 10 6 8 9 9 9 8 8 9 8 8 8 8 7 6 6 6 6 6 6 7 6 6 5 5 5 4 4 5
11 11 9 9 14 17 16 12 10 7 4 8 3 6 6 3 5 9 9 13 14 13 15 16 28 22 21 21 21 22 20 18 20 21 21 21 20 19 15 16 16 15 15 15 15 14 15 14 15 16 14 13 13 16 16 16 14 12 12 12 12 10 8 6 8 9 9 7 10 9 8 8 9 8 8 8 9 9 8 8 8 8 7 7 6 6 6 5 5 7 8 7 6 5 3 5 6
7 13 11 10 9 10 11 9 5 4 10 10 9 6 4 3 8 9 13 14 13 12 9 10 19 23 21 21 22 21 18 18 18 18 19 19 19 19 15 15 18 16 13 16 15 16 15 15 16 17 16 13 14 16 17 17 15 13 13 13 13 12 11 9 8 9 9 7 9 10 8 9 9 9 8 7 8 9 8 8 8 8 6 6 7 7 7 7 5 6 6 6 6 5 4 4 4
13 8 10 6 6 4 3 6 7 8 9 6 9 8 6 6 3 10 11 12 19 17 16 16 15 24 21 19 19 20 19 19 19 17 17 16 15 16 15 15 17 17 14 16 16 16 16 15 16 18 16 15 14 15 16 16 15 14 13 14 14 12 12 11 10 11 12 12 10 11 8 9 9 8 8 9 7 9 9 8 8 8 7 6 7 7 7 6 6 6 6 6 6 5 4 4 4
14 8 8 9 2 4 5 4 10 12 8 3 7 7 8 9 3 4 5 7 15 17 17 19 18 23 23 21 22 19 19 20 19 17 16 16 17 19 18 16 16 17 15 17 19 18 17 17 19 19 18 17 16 16 17 17 16 15 14 14 13 12 12 12 11 10 11 11 10 8 9 9 9 8 9 10 9 10 9 8 9 8 8 8 6 7 6 7 6 6 6 7 7 6 6 7 5
13 12 7 9 6 6 7 4 1 2 5 4 5 7 12 1 5 10 6 6 6 15 18 15 17 24 26 24 23 21 20 21 19 18 18 18 17 19 19 17 17 17 16 17 19 18 17 17 19 20 20 19 16 16 18 17 17 16 15 14 14 12 12 12 11 11 11 10 10 9 10 9 10 11 11 11 11 10 9 9 9 9 8 8 7 7 7 6 6 7 7 8 8 7 6 7 6
11 11 10 9 8 4 7 5 8 4 1 9 10 4 4 8 5 3 11 10 10 5 12 13 10 24 23 24 22 21 20 19 17 18 19 19 19 20 19 19 18 18 17 16 16 17 16 17 18 20 20 19 18 17 17 19 17 17 15 14 14 12 12 12 12 11 11 11 10 11 9 9 9 10 11 10 10 10 9 9 9 9 8 8 8 7 8 7 6 6 7 8 7 7 7 7 7
10 10 6 7 13 2 3 4 3 4 3 2 7 8 2 6 3 10 5 8 11 11 7 8 10 22 21 20 21 19 19 19 18 19 19 20 19 18 17 17 17 17 18 15 16 16 16 18 19 20 21 20 20 19 17 18 18 16 16 16 16 14 12 11 10 9 9 11 11 11 11 9 9 8 8 9 10 10 9 10 10 10 8 8 8 8 8 7 6 6 7 8 8 7 7 9 7
10 9 15 9 7 7 2 0 3 0 1 6 1 3 7 6 12 6 7 12 14 15 12 9 9 22 23 20 21 20 21 20 18 19 18 19 18 18 18 18 17 18 17 18 18 18 18 17 18 19 19 17 19 19 18 18 18 17 17 17 16 15 15 14 13 13 12 11 11 11 10 10 8 8 7 9 10 10 10 9 10 10 10 8 8 8 8 8 7 6 7 8 8 8 8 9 8
7 14 9 5 2 4 5 3 3 5 6 4 9 11 4 9 7 10 10 9 13 15 16 14 8 19 23 23 20 20 20 20 20 20 18 20 20 21 19 18 20 21 23 21 19 16 15 15 18 19 18 19 19 18 18 16 17 17 17 17 16 16 15 15 14 14 12 10 10 10 9 9 10 9 9 8 9 10 9 10 10 10 10 10 9 9 9 8 8 7 7 8 8 8 8 7 8
10 10 11 11 8 12 5 2 5 7 6 4 9 14 10 12 9 10 17 16 12 12 16 17 10 16 19 23 26 22 22 19 17 18 17 17 18 19 19 20 21 22 22 20 17 16 15 15 17 19 21 21 21 18 17 15 16 13 13 16 17 16 15 15 14 13 12 12 12 11 12 12 10 9 9 9 9 9 10 10 10 10 10 11 9 9 9 8 8 8 7 7 7 7 8 8 8
14 8 13 9 3 7 6 7 0 3 2 7 4 8 6 9 9 15 18 18 15 10 10 17 17 14 17 19 23 22 20 17 18 18 18 18 19 20 20 20 21 20 19 18 19 17 19 19 19 19 19 18 17 17 16 15 15 14 14 14 16 16 17 16 15 14 13 13 13 12 12 11 12 10 10 11 11 10 10 11 10 11 11 11 10 10 10 9 9 9 8 8 8 7 8 9 8
15 10 9 11 6 4 3 4 8 3 2 3 4 5 3 7 8 17 17 17 14 14 9 7 14 13 18 19 20 20 22 18 18 18 18 19 19 20 20 20 19 19 18 18 18 20 19 18 19 20 21 21 20 20 18 17 16 16 16 16 17 16 16 14 14 14 14 14 13 12 12 11 10 11 10 10 11 12 12 11 12 11 12 11 11 11 10 10 9 9 9 9 8 9 8 7 8
13 12 8 12 12 8 13 6 6 8 3 2 1 4 5 7 6 8 16 15 16 13 12 9 6 11 17 17 19 19 21 22 21 20 19 19 18 19 19 16 15 17 19 21 20 18 18 19 19 19 19 19 20 19 18 17 15 15 17 17 17 15 15 14 15 15 15 14 13 12 12 10 11 12 12 11 11 11 12 12 12 12 12 12 12 11 10 10 10 10 10 8 9 10 10 8 8
Wind_Direction
163 168 166 191 197 306 109 231 279 178 248 271 299 336 268 16 287 110 179 150 132 161 175 189 171 147 194 125 104 81 28 160 289 153 175 134 140 156 154 134 145 143 142 145 148 146 144 147 146 148 154 134 130 127 125 122 120 118 115 113 112 113 111 110 109 107 105 105 105 105 106 107 107 108 107 110 114 114 114 115 114 112 109 108 111 114 115 114 112 111 110 111 107 107 105 102 100
166 173 174 182 187 191 191 202 242 253 208 284 257 129 340 49 2 219 133 73 137 158 147 186 159 193 176 98 94 70 35 28 86 100 80 124 138 147 141 142 147 143 140 138 135 135 138 152 150 147 154 130 131 129 127 123 122 120 117 115 114 114 113 112 110 108 108 108 107 107 107 108 108 107 109 107 108 108 110 111 109 110 117 116 116 117 115 116 116 116 116 112 111 110 106 103 102
167 176 184 154 124 229 33 193 321 314 348 313 298 258 68 202 212 112 98 194 151 160 181 152 154 147 116 79 48 70 69 72 96 91 105 135 134 150 141 142 142 138 136 136 133 139 143 155 158 150 140 133 131 131 128 125 124 121 119 118 117 116 114 112 110 109 110 108 107 107 107 105 105 106 107 107 105 106 108 109 114 118 114 116 114 108 116 116 117 118 119 118 116 113 109 108 107
161 100 136 160 80 9 334 47 273 318 275 267 302 230 198 228 237 96 42 180 130 256 48 55 76 69 99 82 96 91 100 79 86 122 127 151 147 143 139 140 137 136 137 137 137 138 146 160 158 156 138 135 134 133 129 127 125 123 122 122 120 117 115 112 112 112 110 108 106 106 105 106 106 107 107 105 104 105 107 108 109 111 113 111 113 115 111 116 121 121 120 119 118 115 114 111 111
104 89 95 102 163 77 34 307 278 100 274 243 260 263 221 115 102 124 167 219 148 158 151 122 92 104 111 121 137 103 114 106 98 95 124 126 137 135 139 137 137 140 140 139 136 139 152 160 168 151 138 137 136 134 131 128 126 125 125 123 120 118 116 115 114 112 111 110 109 107 106 105 105 104 103 102 101 102 102 105 108 108 110 112 110 109 110 113 118 118 119 119 121 119 116 116 113
104 101 108 108 144 84 250 258 233 242 233 25 292 255 166 182 176 145 133 113 104 341 115 120 113 118 79 53 78 110 138 128 132 115 127 134 136 139 136 138 141 141 142 143 141 147 157 163 158 141 140 138 136 133 131 129 129 128 126 123 121 119 118 116 116 115 113 110 108 106 104 104 103 101 101 99 99 100 99 101 100 102 107 107 107 107 110 114 118 120 120 121 121 121 120 118 118
145 107 132 56 280 186 284 283 276 248 232 169 252 235 179 184 196 154 143 111 353 116 319 98 104 106 91 104 107 116 98 122 133 128 131 137 136 136 138 140 141 141 140 137 140 147 154 157 147 142 140 139 136 134 132 131 132 130 127 124 123 121 119 119 116 114 112 111 109 108 107 104 102 102 101 102 102 100 101 101 101 102 104 106 108 110 111 111 111 114 118 120 121 122 121 121 120
35 69 105 130 345 182 240 248 264 236 318 169 92 278 175 202 100 139 137 129 155 146 149 130 121 103 102 109 96 114 126 122 118 126 131 135 136 139 141 142 141 143 137 136 138 143 149 150 144 143 140 139 138 136 134 134 133 131 129 126 124 123 123 122 119 117 115 112 111 110 108 106 104 103 101 101 102 101 102 101 100 102 103 104 108 109 109 111 112 113 116 119 121 122 123 120 120
96 131 184 155 139 229 262 259 286 299 261 304 100 287 231 193 129 195 162 131 149 142 153 115 128 111 110 106 96 112 106 116 121 128 133 135 140 142 141 142 143 139 134 135 137 141 147 147 145 143 141 140 139 137 135 135 135 133 131 129 127 127 126 123 121 118 115 113 111 109 108 107 107 105 104 102 99 100 100 100 100 101 100 104 105 107 110 111 112 113 112 114 116 119 120 121 121
148 220 232 202 119 273 263 248 119 146 298 34 198 190 153 225 185 198 150 137 143 138 125 123 109 102 112 102 112 113 124 123 127 132 136 139 142 142 141 141 139 137 138 135 138 143 146 147 145 143 143 141 140 138 137 138 137 135 133 131 131 129 127 125 122 119 117 115 112 110 110 110 108 108 107 106 104 103 102 103 103 101 101 101 103 107 110 111 114 115 117 121 124 124 122 122 122
201 215 262 7 180 293 311 295 283 8 51 46 319 202 184 203 196 175 145 125 135 120 113 110 108 113 121 109 93 110 123 131 135 138 142 144 143 142 137 138 139 138 137 138 142 144 146 146 145 144 143 141 140 139 139 140 138 137 135 135 134 131 129 126 123 122 119 118 116 114 111 110 108 108 107 108 107 105 104 104 103 103 103 104 105 108 112 114 115 117 117 119 123 123 124 123 125
341 194 177 296 250 184 266 296 300 49 138 87 295 251 187 193 182 172 136 139 128 133 131 144 125 127 108 113 119 129 134 136 137 140 143 141 142 138 135 138 141 136 137 140 141 143 144 144 143 145 142 142 142 141 142 142 140 138 138 138 136 133 130 127 125 124 123 120 119 116 113 110 109 109 108 107 107 106 105 104 104 105 106 106 107 110 112 116 117 118 118 117 119 123 124 126 129
215 119 131 150 251 148 265 279 260 248 167 165 203 238 127 229 189 156 143 131 142 138 139 124 127 126 117 122 128 134 143 141 140 140 141 143 141 134 138 140 138 140 138 137 140 142 141 141 142 143 144 143 143 143 144 143 142 141 140 140 138 135 133 130 127 126 127 125 120 116 112 110 109 107 108 108 110 109 108 107 108 109 111 112 111 110 113 116 119 120 120 121 123 124 126 129 132
214 178 166 273 150 277 280 266 284 9 319 135 142 261 192 186 172 154 145 142 146 144 130 136 131 122 113 124 143 145 142 147 145 144 147 143 138 137 135 136 142 139 137 140 140 141 141 142 141 142 143 141 143 145 146 145 145 144 144 142 140 138 136 133 131 132 131 128 122 119 115 113 111 111 110 110 109 110 110 110 110 111 113 114 115 114 114 116 118 120 122 126 128 130 132 133 141
204 116 147 259 234 189 245 260 249 159 239 118 152 168 226 197 161 178 173 142 139 126 143 147 131 125 160 154 152 153 149 150 143 137 131 131 136 140 140 143 139 135 139 141 140 143 143 144 143 141 140 143 143 142 144 148 147 147 147 145 144 142 140 137 137 137 135 130 127 123 121 118 117 115 115 115 116 114 116 117 117 115 115 116 116 117 117 118 122 125 127 129 133 137 140 146 148
185 121 188 278 278 299 286 276 269 85 181 286 144 200 121 128 151 180 176 151 117 141 159 136 165 129 155 154 146 141 143 138 144 139 134 136 135 134 142 139 135 140 141 141 146 148 147 146 143 144 144 145 144 145 147 147 151 150 149 148 148 146 144 143 144 142 139 135 131 126 124 121 120 119 119 119 123 123 122 125 124 120 118 115 115 117 118 120 124 126 127 128 130 140 144 148 155
210 156 241 219 282 243 269 272 348 69 327 40 159 129 171 151 165 185 127 115 142 154 166 152 159 136 152 148 141 141 145 142 140 140 138 139 137 148 140 139 143 143 142 149 151 151 150 144 148 146 149 148 148 147 147 149 153 153 152 152 151 150 148 149 148 145 140 138 133 134 130 129 123 125 120 132 118 120 131 132 129 126 122 117 118 120 122 123 126 127 132 137 143 149 156 155 159
172 108 237 257 244 260 280 287 321 331 310 357 2 80 35 281 162 130 113 142 146 162 159 150 124 144 137 137 138 146 142 137 142 141 141 144 143 140 141 143 148 149 149 154 158 155 147 149 152 151 152 155 151 149 152 153 155 153 151 154 151 153 154 152 147 144 143 137 145 145 133 135 136 135 147 132 131 133 133 134 134 131 127 127 126 127 128 131 128 135 136 142 154 156 168 146 216
189 186 200 244 232 244 251 284 291 339 332 338 310 125 159 216 145 234 138 158 163 173 132 131 134 127 129 135 142 148 143 141 145 140 145 148 148 148 147 151 150 147 154 158 158 158 149 150 157 155 160 157 149 152 153 158 153 149 155 153 157 156 160 152 154 153 144 155 141 148 143 116 129 148 156 142 144 146 146 143 141 136 133 135 139 139 140 139 145 139 152 163 178 181 167 231 222
199 225 215 237 231 250 234 295 294 296 305 312 326 322 333 209 135 153 126 124 129 107 133 129 129 136 139 140 149 152 154 143 140 145 147 148 149 148 149 155 152 155 155 159 157 153 152 157 161 161 165 154 151 156 154 156 158 156 157 162 161 163 160 161 175 161 155 167 157 167 149 145 136 161 174 153 149 137 149 148 142 140 141 142 146 147 168 161 174 182 177 164 207 204 168 213 226
170 210 223 226 217 249 255 217 272 303 337 346 327 311 326 82 134 144 143 131 137 124 126 137 141 141 144 148 150 160 155 145 146 149 148 148 150 148 151 151 153 155 155 153 156 155 157 162 162 163 165 154 155 155 155 163 164 158 167 165 168 165 165 174 181 168 163 169 172 165 152 150 147 183 187 118 120 139 139 132 138 136 131 141 148 125 208 199 171 237 239 179 192 209 221 237 225
234 205 223 212 198 217 220 229 215 329 27 56 295 290 263 170 149 127 160 150 149 148 141 139 141 145 144 150 152 163 156 152 150 150 150 152 154 152 146 146 150 152 154 158 159 155 162 165 164 165 162 158 160 156 160 168 166 164 172 168 169 165 171 179 180 173 169 171 172 165 152 152 150 172 176 143 143 146 155 162 175 171 159 161 174 198 210 169 178 201 195 177 188 196 222 223 203
232 217 221 168 184 202 186 230 228 206 183 170 249 247 145 351 89 160 161 144 147 148 139 142 146 147 149 148 155 164 160 156 153 156 154 155 155 155 152 153 157 159 161 159 155 158 163 168 165 168 160 160 159 155 159 168 170 170 170 166 169 167 173 182 178 180 173 177 172 156 149 160 158 163 178 160 145 151 162 162 157 152 155 158 172 191 218 188 195 190 159 184 175 198 223 240 211
225 234 175 183 181 199 184 230 225 225 217 220 228 266 138 192 171 188 166 136 142 140 136 142 141 146 146 151 161 164 162 157 159 160 157 156 154 159 159 158 157 154 157 157 158 162 167 170 166 168 159 163 158 157 164 170 176 169 175 168 170 174 172 182 183 180 170 171 175 153 153 165 162 175 176 159 152 131 140 145 137 139 146 170 180 188 237 211 216 174 186 181 197 195 190 213 215
215 221 234 181 185 199 191 208 219 235 222 216 267 300 226 161 239 157 127 139 132 134 136 140 144 147 153 154 164 162 162 156 162 159 161 154 157 160 155 155 154 156 159 162 161 164 170 166 165 166 163 169 162 158 167 174 181 171 175 168 174 177 174 182 182 174 163 167 168 163 155 167 170 171 166 162 147 145 150 145 154 155 165 196 156 207 202 249 230 186 160 155 209 235 205 249 313
213 216 213 182 188 200 185 197 226 241 257 178 207 297 294 162 178 125 128 125 128 133 137 143 145 152 156 162 165 162 164 160 162 172 166 156 164 156 156 158 157 166 161 161 162 166 170 160 167 168 169 171 164 158 165 175 187 170 173 174 176 174 173 185 166 158 165 160 170 176 165 164 175 176 153 153 148 154 156 148 156 174 179 197 189 196 211 196 179 136 144 155 307 311 287 239 300
208 212 228 206 186 194 184 199 212 221 242 181 158 250 260 259 179 115 108 115 124 135 142 147 152 156 158 163 164 167 167 161 176 169 164 166 161 156 153 158 164 167 158 163 165 166 171 160 167 170 170 170 170 155 165 176 187 173 169 171 171 173 174 159 157 158 157 169 173 173 179 163 164 140 146 154 155 153 149 170 177 179 194 195 194 215 212 170 177 163 166 194 206 27 311 237 250
261 236 219 220 183 180 176 197 202 202 236 240 161 191 196 231 249 136 134 145 137 142 150 152 157 159 158 165 166 166 169 164 183 165 177 168 155 154 160 164 164 166 165 165 166 166 167 165 167 168 170 173 172 158 165 172 188 171 169 164 174 172 158 147 161 162 166 175 171 170 154 156 132 132 138 151 157 155 159 175 184 168 188 180 189 188 169 147 166 143 159 200 156 62 345 347 308
261 263 250 221 187 179 165 182 199 200 227 214 213 105 242 121 312 147 151 147 144 146 149 158 156 161 162 165 163 171 179 167 177 175 176 166 157 160 167 165 164 165 167 162 163 168 166 169 169 166 169 172 173 166 162 169 183 169 164 166 166 161 158 162 173 174 172 163 165 160 143 129 126 135 146 151 147 144 150 158 156 168 174 157 199 153 129 110 76 45 70 124 81 47 2 313 308
266 266 275 232 202 214 190 194 204 205 206 210 203 187 216 199 223 175 144 141 147 150 153 159 161 159 167 163 162 170 177 167 178 177 174 172 165 171 163 167 166 164 163 158 163 173 167 170 168 165 170 173 175 172 153 166 178 165 165 153 153 158 163 161 177 160 163 143 152 152 140 133 134 139 141 139 140 143 147 151 157 170 176 157 162 103 102 111 125 121 100 246 90 78 298 289 332
239 240 234 240 198 215 192 215 214 214 180 207 185 216 191 164 246 146 143 152 151 156 164 159 157 163 163 163 165 169 177 170 176 171 177 174 172 168 167 163 161 159 165 162 166 175 170 168 167 166 169 171 183 172 166 166 167 164 160 154 153 156 168 156 170 141 142 142 141 147 145 137 145 151 150 139 147 145 147 155 157 171 166 142 126 148 114 105 148 136 93 198 115 144 237 229 248
248 306 244 215 208 196 217 201 209 226 180 202 222 239 212 178 182 153 154 155 157 157 163 159 158 164 166 162 166 172 179 168 178 177 173 182 174 171 166 166 161 160 167 164 164 171 174 168 167 165 166 170 182 175 168 167 163 161 157 163 156 158 165 167 174 158 145 142 142 148 156 152 153 162 164 143 150 150 153 153 163 158 145 128 131 158 139 155 115 114 269 168 132 190 235 282 302
249 210 238 245 178 233 259 204 195 202 221 179 212 224 207 256 160 165 158 158 157 159 158 165 163 164 168 162 166 174 171 173 178 184 175 183 180 177 170 162 164 164 163 161 165 170 170 170 167 164 169 170 180 172 168 159 158 157 158 168 162 155 159 176 191 169 149 148 150 151 160 159 166 168 163 154 146 163 156 145 164 158 144 145 140 147 146 149 155 156 219 136 134 138 157 261 325
253 201 231 243 216 188 227 231 213 192 211 186 184 216 230 247 147 163 161 146 151 159 159 170 167 163 167 162 168 172 175 177 181 182 179 181 183 182 168 165 161 165 164 165 165 166 171 167 170 165 167 171 175 173 166 157 164 157 159 163 164 163 164 173 199 168 162 152 156 160 159 162 166 174 164 158 155 161 157 156 167 159 151 144 163 162 193 152 167 153 144 53 101 113 159 206 257
227 221 199 222 256 231 210 208 203 200 191 206 172 198 221 210 134 154 154 150 153 158 159 174 169 163 162 162 170 175 176 182 183 181 178 178 180 183 164 166 158 163 166 165 168 162 166 165 169 165 165 167 174 166 159 156 156 156 160 156 162 168 178 178 197 171 168 160 160 167 162 162 168 177 165 161 174 145 151 154 163 156 149 156 165 179 200 180 174 156 150 126 78 78 193 192 209
230 240 196 205 225 233 244 222 221 197 177 205 173 187 214 151 154 153 153 160 155 169 162 175 180 167 166 164 170 172 177 182 185 181 178 174 174 181 164 166 158 162 164 162 167 163 168 164 170 161 163 165 168 161 158 153 156 165 162 154 157 174 183 188 192 188 173 168 159 163 167 161 169 169 167 166 177 166 160 165 168 155 151 158 165 162 183 166 156 141 135 136 118 12 338 286 313
234 241 243 203 209 233 231 250 246 188 169 189 180 188 187 189 161 163 164 171 165 169 169 175 178 173 174 166 169 172 175 181 181 182 180 171 172 178 166 166 158 161 161 161 167 167 165 167 164 164 163 162 170 166 167 162 164 162 165 174 164 176 182 193 184 197 179 172 159 164 165 166 166 165 170 166 169 189 175 167 167 164 163 167 178 187 176 139 131 116 110 97 124 121 289 319 330
243 249 248 247 206 215 222 238 241 212 190 177 186 185 185 196 178 175 171 166 166 171 176 174 177 173 174 171 167 173 176 173 174 183 189 173 170 175 166 167 159 163 165 163 170 171 165 167 163 164 161 164 172 173 168 168 171 174 174 178 161 167 173 188 201 198 188 156 156 160 163 166 163 167 171 166 172 182 193 173 168 176 171 175 188 188 158 132 134 142 132 85 84 155 230 248 222
233 242 255 269 254 231 209 224 247 220 191 172 174 185 196 194 201 169 173 168 170 174 171 175 173 170 173 175 172 168 168 173 176 184 194 186 172 174 167 170 167 167 168 164 170 169 167 169 165 164 165 165 170 170 168 169 166 170 170 174 169 166 171 185 188 189 179 163 162 163 163 164 164 168 169 170 173 184 192 186 166 173 175 167 173 178 142 156 171 158 133 139 145 202 220 239 226
235 229 237 243 257 262 241 216 229 195 180 152 174 183 197 205 197 199 161 171 175 175 166 169 172 173 174 178 177 171 172 173 179 182 192 195 175 173 172 172 169 163 170 162 168 169 171 172 170 167 169 166 169 169 171 164 163 166 162 171 164 166 175 182 192 193 183 149 164 167 165 164 166 170 170 173 176 183 189 189 173 170 173 163 168 167 170 176 162 145 139 154 147 180 213 246 179
230 238 229 238 250 255 253 245 213 211 186 167 161 179 198 196 197 194 174 165 177 179 172 178 180 179 178 179 176 174 174 176 178 181 188 193 178 177 174 173 168 165 172 171 170 170 174 173 173 171 170 168 170 170 167 165 152 162 170 170 168 151 161 183 184 200 207 173 161 168 174 169 168 168 173 177 176 184 187 188 180 176 173 179 165 166 175 180 170 167 168 165 181 170 215 220 229
214 229 240 239 239 249 261 265 265 214 205 186 159 169 229 209 197 194 166 191 176 178 174 184 187 186 174 173 178 177 178 176 176 181 187 190 179 174 170 171 174 168 174 175 174 173 166 171 170 171 170 168 171 170 169 167 167 166 172 174 187 176 177 183 192 189 193 195 178 173 168 173 168 170 174 178 183 182 189 186 181 172 176 180 177 175 180 161 166 163 183 177 189 190 191 188 181
212 208 222 241 251 252 252 258 271 227 214 196 167 174 228 202 196 193 190 182 187 176 184 184 188 182 176 177 175 175 175 177 183 182 182 184 185 175 176 176 177 174 176 172 173 174 168 168 169 170 171 171 171 170 170 170 170 173 179 185 190 186 178 191 190 182 180 193 167 176 172 174 173 172 180 182 182 187 187 184 180 183 178 183 180 165 175 176 178 175 176 181 190 191 184 175 167
227 190 200 221 243 253 257 264 262 257 261 214 189 173 151 200 205 193 191 197 195 182 173 187 185 184 179 179 177 175 174 176 177 180 182 184 187 185 180 180 181 180 169 169 172 172 173 170 171 170 171 171 173 171 173 175 174 175 178 184 191 193 183 185 182 182 173 177 183 177 171 179 178 181 180 183 185 185 185 183 183 187 180 185 177 177 181 181 174 177 173 191 185 192 170 164 178
224 210 205 201 215 241 255 261 269 271 295 278 218 173 162 196 230 207 187 191 195 204 179 176 186 187 184 179 177 175 176 175 176 178 181 182 186 190 182 182 181 171 166 172 172 174 176 172 175 172 172 171 173 173 175 179 177 176 178 181 188 198 181 179 177 179 174 176 185 179 178 178 180 185 185 184 187 186 187 184 184 187 183 182 180 183 188 180 181 177 176 189 189 190 176 170 156
212 237 225 228 201 211 234 245 257 279 294 260 240 187 191 229 214 201 196 197 197 195 196 176 180 184 185 180 176 176 176 175 177 180 180 183 185 188 183 180 174 178 173 171 170 169 173 171 175 177 176 176 173 175 176 178 179 176 179 185 185 189 185 178 173 178 184 175 183 189 178 182 182 185 190 187 186 188 186 185 185 187 188 184 178 187 190 194 183 179 179 184 186 172 179 150 170
207 215 243 234 231 204 207 234 244 290 260 257 242 238 216 239 225 195 188 198 195 192 191 188 175 183 178 178 175 174 172 175 178 180 184 184 183 183 180 175 179 177 169 166 169 170 171 171 174 180 182 180 176 177 176 180 180 181 184 185 186 184 185 181 172 181 182 178 185 191 182 184 184 186 189 192 187 188 186 184 187 189 189 182 180 183 189 193 184 175 175 167 172 172 182 172 160
213 197 214 239 258 247 196 206 199 232 249 253 251 255 243 243 244 216 204 186 188 184 189 197 174 177 181 179 176 173 171 175 178 178 181 178 175 181 181 179 178 177 169 168 170 168 172 174 176 180 181 183 181 179 179 181 183 186 186 186 187 187 183 187 184 183 185 190 186 191 183 179 186 187 188 192 190 189 186 186 185 185 190 188 185 184 185 188 181 175 168 165 168 170 174 188 157
203 207 187 204 213 187 236 154 205 218 223 231 265 261 275 251 222 275 210 187 187 184 190 195 191 169 177 173 173 172 170 174 175 178 175 173 176 180 183 180 178 179 176 173 172 172 174 176 177 179 184 184 184 182 182 183 185 187 188 187 190 187 186 188 190 187 188 191 191 187 182 181 181 184 192 191 195 188 185 183 184 186 190 194 191 183 184 185 182 174 172 170 169 172 179 186 176
189 207 176 182 203 192 209 232 226 257 225 210 229 243 259 315 280 227 247 251 195 192 187 190 192 167 174 170 171 171 172 175 175 175 175 176 177 180 181 177 179 182 181 177 176 175 174 178 178 182 185 183 184 185 186 185 188 189 188 188 188 186 189 189 192 191 190 191 191 191 190 183 180 187 188 192 193 187 185 188 186 186 187 189 188 188 182 184 181 180 173 172 175 177 173 181 188
196 198 200 188 201 183 193 178 201 187 200 200 212 245 217 195 215 170 214 249 261 182 201 180 175 165 169 170 168 167 169 172 171 174 176 178 180 178 178 179 181 183 183 179 178 177 175 178 179 184 185 185 184 188 188 190 190 190 190 190 189 189 189 191 195 194 189 189 190 192 191 188 184 187 189 190 187 188 185 185 186 185 185 188 187 185 188 187 184 176 175 177 173 174 171 179 187
197 195 210 187 206 119 181 188 188 159 179 277 200 216 115 183 209 190 204 203 249 250 201 218 168 160 165 167 167 167 172 172 174 175 176 177 179 178 177 179 180 182 182 182 182 178 178 180 181 184 186 185 186 188 192 192 192 190 189 190 191 191 192 194 197 197 194 190 189 190 192 190 190 181 185 181 188 186 183 185 186 189 185 183 187 185 184 187 189 174 175 175 178 178 168 180 188
175 184 208 207 129 200 253 191 163 142 92 243 202 262 264 293 299 279 207 194 209 235 242 201 196 160 164 166 168 169 173 175 174 175 176 173 175 179 181 179 179 181 184 188 186 183 181 176 179 182 186 187 190 193 193 195 194 191 192 191 190 191 193 194 196 196 195 192 190 192 192 193 187 183 179 183 185 186 185 182 186 189 188 185 184 186 183 186 187 180 173 179 180 182 172 182 183
142 205 200 138 176 203 204 203 163 186 197 218 193 232 230 193 242 235 241 224 214 210 221 231 184 169 160 169 168 167 171 172 173 175 172 172 176 181 182 183 182 184 188 189 186 183 178 178 179 181 184 188 193 194 196 196 197 197 195 193 192 193 194 197 197 197 196 190 190 191 190 191 194 189 186 183 181 186 187 185 185 189 190 188 187 187 185 183 181 186 179 182 184 177 178 180 186
205 189 132 184 166 213 184 214 212 185 210 222 205 209 226 188 220 183 221 227 229 216 204 213 206 173 166 165 171 171 170 166 163 168 170 174 180 182 182 185 186 189 188 186 182 177 180 179 180 182 187 191 191 193 197 198 198 198 197 195 194 195 197 199 199 197 194 196 193 190 191 193 191 187 186 187 186 186 186 191 187 188 188 191 188 187 186 183 180 186 186 183 188 177 181 184 190
227 155 175 187 198 193 170 199 272 156 213 200 263 202 229 201 202 190 199 214 215 211 194 197 200 161 177 162 170 172 168 166 167 171 174 178 180 180 183 183 186 185 185 184 183 183 182 181 179 185 188 189 190 194 195 198 200 200 201 200 200 199 197 197 197 193 195 199 199 193 191 188 192 189 188 186 190 191 188 189 190 189 189 190 191 189 186 186 184 189 187 190 191 185 181 189 191
207 212 183 173 215 132 188 158 212 159 190 183 201 233 230 241 199 190 194 199 198 196 183 183 197 163 174 172 167 165 170 170 173 172 175 180 180 182 185 184 182 180 180 181 185 188 186 180 182 183 185 188 190 193 193 199 197 201 200 200 202 202 202 199 197 195 197 200 200 197 194 192 185 193 187 186 190 193 192 190 189 190 190 191 191 191 188 186 188 192 192 192 191 193 188 190 190
203 205 197 177 178 174 186 231 188 227 240 209 217 243 255 251 256 181 186 188 193 179 183 180 187 183 169 176 172 166 168 175 176 175 175 178 179 183 185 182 180 179 177 182 185 184 182 186 186 185 186 188 191 193 195 196 198 201 202 202 203 202 201 198 197 196 199 200 200 198 196 190 189 193 191 192 190 192 192 191 189 191 191 191 191 192 190 187 191 192 195 192 193 192 197 191 189